Time,TemperatureF,DewpointF,PressureIn,WindDirection,WindDirectionDegrees,WindSpeedMPH,WindSpeedGustMPH,Humidity,HourlyPrecipIn,Conditions,Clouds,dailyrainin,SoftwareType,DateUTC
2013-02-06 00:01:00,33.0,23.0,29.77,SE,143,12.0,-999.0,67,-99.99,,,-99.99,,2013-02-06 07:01:00,
2013-02-06 00:11:00,33.0,23.0,29.76,SSE,148,8.0,-999.0,68,-99.99,,,-99.99,,2013-02-06 07:11:00,
2013-02-06 00:22:00,33.0,24.0,29.74,SSE,154,10.0,-999.0,69,-99.99,,,-99.99,,2013-02-06 07:22:00,
2013-02-06 00:32:00,33.0,24.0,29.72,SSE,156,10.0,-999.0,70,-99.99,,,-99.99,,2013-02-06 07:32:00,
2013-02-06 00:42:00,31.0,23.0,29.74,SSE,149,9.0,-999.0,71,-99.99,,,-99.99,,2013-02-06 07:42:00,
2013-02-06 00:51:00,32.0,23.0,29.73,SSE,148,9.0,-999.0,71,-99.99,,,-99.99,,2013-02-06 07:51:00,
2013-02-06 01:01:00,31.0,23.0,29.72,SSE,149,10.0,-999.0,72,-99.99,,,-99.99,,2013-02-06 08:01:00,
2013-02-06 01:11:00,31.0,24.0,29.72,SSE,152,11.0,-999.0,73,-99.99,,,-99.99,,2013-02-06 08:11:00,
2013-02-06 01:21:00,31.0,23.0,29.71,SSE,154,11.0,-999.0,72,-99.99,,,-99.99,,2013-02-06 08:21:00,
2013-02-06 01:31:00,32.0,24.0,29.71,SSE,159,12.0,-999.0,73,-99.99,,,-99.99,,2013-02-06 08:31:00,
2013-02-06 01:42:00,31.0,24.0,29.71,SSE,167,13.0,-999.0,74,-99.99,,,-99.99,,2013-02-06 08:42:00,
2013-02-06 01:53:00,32.0,24.0,29.69,South,172,12.0,-999.0,73,-99.99,,,-99.99,,2013-02-06 08:53:00,
2013-02-06 02:01:00,32.0,24.0,29.70,SSE,165,11.0,-999.0,72,-99.99,,,-99.99,,2013-02-06 09:01:00,
2013-02-06 02:11:00,31.0,24.0,29.71,SSE,167,12.0,-999.0,74,-99.99,,,-99.99,,2013-02-06 09:11:00,
2013-02-06 02:21:00,31.0,24.0,29.70,South,190,9.0,-999.0,75,-99.99,,,-99.99,,2013-02-06 09:21:00,
2013-02-06 02:32:00,30.0,23.0,29.72,SSW,194,9.0,-999.0,77,-99.99,,,-99.99,,2013-02-06 09:32:00,
2013-02-06 02:41:00,30.0,24.0,29.69,SSW,208,8.0,-999.0,76,-99.99,,,-99.99,,2013-02-06 09:41:00,
2013-02-06 02:51:00,29.0,23.0,29.71,SW,229,6.0,-999.0,77,-99.99,,,-99.99,,2013-02-06 09:51:00,
2013-02-06 03:01:00,27.0,22.0,29.69,WSW,256,5.0,-999.0,82,-99.99,,,-99.99,,2013-02-06 10:01:00,
2013-02-06 03:11:00,27.0,22.0,29.70,WSW,244,6.0,-999.0,84,-99.99,,,-99.99,,2013-02-06 10:11:00,
2013-02-06 03:21:00,27.0,23.0,29.70,West,262,5.0,-999.0,85,-99.99,,,-99.99,,2013-02-06 10:21:00,
2013-02-06 03:31:00,28.0,23.0,29.69,West,259,5.0,-999.0,81,-99.99,,,-99.99,,2013-02-06 10:31:00,
2013-02-06 03:42:00,28.0,23.0,29.70,West,264,7.0,-999.0,79,-99.99,,,-99.99,,2013-02-06 10:42:00,
2013-02-06 03:51:00,29.0,23.0,29.69,West,275,6.0,-999.0,76,-99.99,,,-99.99,,2013-02-06 10:51:00,
2013-02-06 04:01:00,29.0,23.0,29.69,West,262,8.0,-999.0,76,-99.99,,,-99.99,,2013-02-06 11:01:00,
2013-02-06 04:11:00,30.0,23.0,29.69,WSW,251,11.0,-999.0,74,-99.99,,,-99.99,,2013-02-06 11:11:00,
2013-02-06 04:22:00,31.0,23.0,29.69,WSW,250,11.0,-999.0,71,-99.99,,,-99.99,,2013-02-06 11:22:00,
2013-02-06 04:32:00,31.0,22.0,29.69,WSW,258,10.0,-999.0,71,-99.99,,,-99.99,,2013-02-06 11:32:00,
2013-02-06 04:42:00,31.0,22.0,29.70,WSW,254,9.0,-999.0,70,-99.99,,,-99.99,,2013-02-06 11:42:00,
2013-02-06 04:52:00,31.0,22.0,29.68,SW,233,10.0,-999.0,71,-99.99,,,-99.99,,2013-02-06 11:52:00,
2013-02-06 05:02:00,31.0,22.0,29.69,SW,236,10.0,-999.0,68,-99.99,,,-99.99,,2013-02-06 12:02:00,
2013-02-06 05:12:00,31.0,22.0,29.69,WSW,243,9.0,-999.0,68,-99.99,,,-99.99,,2013-02-06 12:12:00,
2013-02-06 05:22:00,32.0,22.0,29.69,West,276,10.0,-999.0,66,-99.99,,,-99.99,,2013-02-06 12:22:00,
2013-02-06 05:32:00,31.0,22.0,29.68,West,277,9.0,-999.0,68,-99.99,,,-99.99,,2013-02-06 12:32:00,
2013-02-06 05:42:00,29.0,22.0,29.69,WSW,242,9.0,-999.0,73,-99.99,,,-99.99,,2013-02-06 12:42:00,
2013-02-06 05:52:00,29.0,22.0,29.69,SW,227,8.0,-999.0,76,-99.99,,,-99.99,,2013-02-06 12:52:00,
2013-02-06 06:01:00,31.0,22.0,29.69,SW,231,9.0,-999.0,68,-99.99,,,-99.99,,2013-02-06 13:01:00,
2013-02-06 06:12:00,31.0,22.0,29.68,SW,231,9.0,-999.0,68,-99.99,,,-99.99,,2013-02-06 13:12:00,
2013-02-06 06:22:00,31.0,22.0,29.68,SW,231,9.0,-999.0,68,-99.99,,,-99.99,,2013-02-06 13:22:00,
2013-02-06 06:32:00,31.0,22.0,29.69,West,268,9.0,-999.0,67,-99.99,,,-99.99,,2013-02-06 13:32:00,
2013-02-06 06:42:00,31.0,22.0,29.69,West,268,9.0,-999.0,67,-99.99,,,-99.99,,2013-02-06 13:42:00,
2013-02-06 06:52:00,30.0,21.0,29.69,West,261,9.0,-999.0,69,-99.99,,,-99.99,,2013-02-06 13:52:00,
2013-02-06 07:02:00,30.0,21.0,29.71,West,266,8.0,-999.0,70,-99.99,,,-99.99,,2013-02-06 14:02:00,
2013-02-06 07:11:00,30.0,21.0,29.72,West,267,9.0,-999.0,69,-99.99,,,-99.99,,2013-02-06 14:11:00,
2013-02-06 07:22:00,29.0,21.0,29.71,WSW,258,8.0,-999.0,71,-99.99,,,-99.99,,2013-02-06 14:22:00,
2013-02-06 07:32:00,30.0,21.0,29.71,WSW,239,10.0,-999.0,69,-99.99,,,-99.99,,2013-02-06 14:32:00,
2013-02-06 07:42:00,30.0,21.0,29.71,WSW,239,10.0,-999.0,69,-99.99,,,-99.99,,2013-02-06 14:42:00,
2013-02-06 07:52:00,30.0,21.0,29.73,WSW,246,13.0,-999.0,69,-99.99,,,-99.99,,2013-02-06 14:52:00,
2013-02-06 08:01:00,31.0,22.0,29.74,WSW,244,11.0,-999.0,69,-99.99,,,-99.99,,2013-02-06 15:01:00,
2013-02-06 08:11:00,31.0,22.0,29.73,West,262,13.0,-999.0,68,-99.99,,,-99.99,,2013-02-06 15:11:00,
2013-02-06 08:21:00,31.0,22.0,29.72,WSW,257,11.0,-999.0,68,-99.99,,,-99.99,,2013-02-06 15:21:00,
2013-02-06 08:31:00,31.0,22.0,29.74,WSW,248,10.0,-999.0,69,-99.99,,,-99.99,,2013-02-06 15:31:00,
2013-02-06 08:42:00,31.0,22.0,29.74,WSW,248,10.0,-999.0,69,-99.99,,,-99.99,,2013-02-06 15:42:00,
2013-02-06 08:52:00,31.0,23.0,29.72,WSW,253,9.0,-999.0,70,-99.99,,,-99.99,,2013-02-06 15:52:00,
2013-02-06 09:01:00,31.0,22.0,29.72,WSW,249,9.0,-999.0,69,-99.99,,,-99.99,,2013-02-06 16:01:00,
2013-02-06 09:11:00,32.0,23.0,29.75,West,259,9.0,-999.0,69,-99.99,,,-99.99,,2013-02-06 16:11:00,
2013-02-06 09:21:00,32.0,24.0,29.75,West,259,9.0,-999.0,72,-99.99,,,-99.99,,2013-02-06 16:21:00,
2013-02-06 09:32:00,31.0,24.0,29.74,West,266,10.0,-999.0,73,-99.99,,,-99.99,,2013-02-06 16:32:00,
2013-02-06 09:42:00,32.0,24.0,29.77,West,268,9.0,-999.0,73,-99.99,,,-99.99,,2013-02-06 16:42:00,
2013-02-06 09:52:00,33.0,26.0,29.77,West,265,10.0,-999.0,73,-99.99,,,-99.99,,2013-02-06 16:52:00,
2013-02-06 10:02:00,33.0,26.0,29.77,West,265,10.0,-999.0,73,-99.99,,,-99.99,,2013-02-06 17:02:00,
2013-02-06 10:11:00,34.0,26.0,29.77,West,272,11.0,-999.0,73,-99.99,,,-99.99,,2013-02-06 17:11:00,
2013-02-06 10:21:00,34.0,27.0,29.78,WNW,296,14.0,-999.0,73,-99.99,,,-99.99,,2013-02-06 17:21:00,
2013-02-06 10:32:00,34.0,27.0,29.80,WNW,291,9.0,-999.0,75,-99.99,,,-99.99,,2013-02-06 17:32:00,
2013-02-06 10:42:00,35.0,28.0,29.80,WNW,288,11.0,-999.0,74,-99.99,,,-99.99,,2013-02-06 17:42:00,
2013-02-06 10:52:00,36.0,28.0,29.77,WNW,282,9.0,-999.0,71,-99.99,,,-99.99,,2013-02-06 17:52:00,
2013-02-06 11:01:00,36.0,28.0,29.79,WNW,285,12.0,-999.0,70,-99.99,,,-99.99,,2013-02-06 18:01:00,
2013-02-06 11:11:00,38.0,27.0,29.80,WNW,285,9.0,-999.0,66,-99.99,,,-99.99,,2013-02-06 18:11:00,
2013-02-06 11:23:00,39.0,27.0,29.79,WNW,291,10.0,-999.0,63,-99.99,,,-99.99,,2013-02-06 18:23:00,
2013-02-06 11:32:00,40.0,27.0,29.79,WNW,297,10.0,-999.0,60,-99.99,,,-99.99,,2013-02-06 18:32:00,
2013-02-06 11:42:00,40.0,27.0,29.78,WNW,296,14.0,-999.0,59,-99.99,,,-99.99,,2013-02-06 18:42:00,
2013-02-06 11:52:00,41.0,27.0,29.79,NW,307,14.0,-999.0,59,-99.99,,,-99.99,,2013-02-06 18:52:00,
2013-02-06 12:01:00,41.0,27.0,29.79,NW,309,13.0,-999.0,59,-99.99,,,-99.99,,2013-02-06 19:01:00,
2013-02-06 12:11:00,41.0,26.0,29.79,NW,319,17.0,-999.0,55,-99.99,,,-99.99,,2013-02-06 19:11:00,
2013-02-06 12:21:00,41.0,27.0,29.80,NW,324,17.0,-999.0,57,-99.99,,,-99.99,,2013-02-06 19:21:00,
2013-02-06 12:32:00,42.0,27.0,29.80,NNW,332,12.0,-999.0,55,-99.99,,,-99.99,,2013-02-06 19:32:00,
2013-02-06 12:42:00,43.0,27.0,29.78,North,-999,14.0,-999.0,53,-99.99,,,-99.99,,2013-02-06 19:42:00,
2013-02-06 12:52:00,44.0,26.0,29.80,West,260,14.0,-999.0,50,-99.99,,,-99.99,,2013-02-06 19:52:00,
2013-02-06 13:01:00,44.0,26.0,29.79,NNW,344,11.0,-999.0,49,-99.99,,,-99.99,,2013-02-06 20:01:00,
2013-02-06 13:11:00,45.0,26.0,29.79,North,-999,13.0,-999.0,48,-99.99,,,-99.99,,2013-02-06 20:11:00,
2013-02-06 13:21:00,45.0,27.0,29.79,NNW,340,13.0,-999.0,50,-99.99,,,-99.99,,2013-02-06 20:21:00,
2013-02-06 13:32:00,45.0,26.0,29.78,North,-999,14.0,-999.0,47,-99.99,,,-99.99,,2013-02-06 20:32:00,
2013-02-06 13:42:00,45.0,27.0,29.80,North,-999,11.0,-999.0,49,-99.99,,,-99.99,,2013-02-06 20:42:00,
2013-02-06 13:52:00,45.0,26.0,29.79,North,-999,14.0,-999.0,48,-99.99,,,-99.99,,2013-02-06 20:52:00,
2013-02-06 14:02:00,45.0,27.0,29.80,NNW,329,10.0,-999.0,49,-99.99,,,-99.99,,2013-02-06 21:02:00,
2013-02-06 14:11:00,45.0,27.0,29.81,West,259,12.0,-999.0,49,-99.99,,,-99.99,,2013-02-06 21:11:00,
2013-02-06 14:21:00,45.0,27.0,29.80,North,1,11.0,-999.0,48,-99.99,,,-99.99,,2013-02-06 21:21:00,
2013-02-06 14:32:00,46.0,25.0,29.81,East,91,13.0,-999.0,44,-99.99,,,-99.99,,2013-02-06 21:32:00,
2013-02-06 14:42:00,46.0,26.0,29.80,East,95,17.0,-999.0,44,-99.99,,,-99.99,,2013-02-06 21:42:00,
2013-02-06 14:51:00,46.0,26.0,29.79,North,-999,17.0,-999.0,45,-99.99,,,-99.99,,2013-02-06 21:51:00,
2013-02-06 15:01:00,46.0,24.0,29.81,North,5,15.0,-999.0,42,-99.99,,,-99.99,,2013-02-06 22:01:00,
2013-02-06 15:11:00,46.0,24.0,29.82,South,172,17.0,-999.0,42,-99.99,,,-99.99,,2013-02-06 22:11:00,
2013-02-06 15:21:00,46.0,24.0,29.80,North,-999,16.0,-999.0,42,-99.99,,,-99.99,,2013-02-06 22:21:00,
2013-02-06 15:31:00,46.0,24.0,29.83,East,87,13.0,-999.0,41,-99.99,,,-99.99,,2013-02-06 22:31:00,
2013-02-06 15:42:00,46.0,24.0,29.83,South,173,12.0,-999.0,41,-99.99,,,-99.99,,2013-02-06 22:42:00,
2013-02-06 15:52:00,45.0,24.0,29.82,NNW,342,9.0,-999.0,43,-99.99,,,-99.99,,2013-02-06 22:52:00,
2013-02-06 16:01:00,45.0,25.0,29.83,North,3,9.0,-999.0,44,-99.99,,,-99.99,,2013-02-06 23:01:00,
2013-02-06 16:11:00,45.0,25.0,29.84,North,1,7.0,-999.0,46,-99.99,,,-99.99,,2013-02-06 23:11:00,
2013-02-06 16:21:00,45.0,25.0,29.83,North,-999,7.0,-999.0,45,-99.99,,,-99.99,,2013-02-06 23:21:00,
2013-02-06 16:32:00,45.0,26.0,29.85,North,6,5.0,-999.0,47,-99.99,,,-99.99,,2013-02-06 23:32:00,
2013-02-06 16:42:00,44.0,26.0,29.84,NNE,12,6.0,-999.0,48,-99.99,,,-99.99,,2013-02-06 23:42:00,
2013-02-06 16:52:00,44.0,25.0,29.85,NNE,32,4.0,-999.0,47,-99.99,,,-99.99,,2013-02-06 23:52:00,
2013-02-06 17:01:00,44.0,25.0,29.86,NE,43,4.0,-999.0,47,-99.99,,,-99.99,,2013-02-07 00:01:00,
2013-02-06 17:11:00,44.0,25.0,29.87,NNE,30,4.0,-999.0,47,-99.99,,,-99.99,,2013-02-07 00:11:00,
2013-02-06 17:21:00,44.0,25.0,29.88,North,11,5.0,-999.0,47,-99.99,,,-99.99,,2013-02-07 00:21:00,
2013-02-06 17:32:00,43.0,25.0,29.87,NNW,338,7.0,-999.0,49,-99.99,,,-99.99,,2013-02-07 00:32:00,
2013-02-06 17:42:00,42.0,25.0,29.89,NW,324,8.0,-999.0,51,-99.99,,,-99.99,,2013-02-07 00:42:00,
2013-02-06 17:51:00,42.0,24.0,29.91,NW,314,7.0,-999.0,49,-99.99,,,-99.99,,2013-02-07 00:51:00,
2013-02-06 18:01:00,42.0,23.0,29.89,NW,309,9.0,-999.0,48,-99.99,,,-99.99,,2013-02-07 01:01:00,
2013-02-06 18:11:00,41.0,23.0,29.90,WNW,289,9.0,-999.0,47,-99.99,,,-99.99,,2013-02-07 01:11:00,
2013-02-06 18:21:00,41.0,23.0,29.89,WNW,286,9.0,-999.0,48,-99.99,,,-99.99,,2013-02-07 01:21:00,
2013-02-06 18:32:00,41.0,23.0,29.90,WNW,295,7.0,-999.0,48,-99.99,,,-99.99,,2013-02-07 01:32:00,
2013-02-06 18:41:00,39.0,22.0,29.92,WNW,294,7.0,-999.0,50,-99.99,,,-99.99,,2013-02-07 01:41:00,
2013-02-06 18:52:00,39.0,22.0,29.92,WNW,294,7.0,-999.0,51,-99.99,,,-99.99,,2013-02-07 01:52:00,
2013-02-06 19:01:00,39.0,22.0,29.92,WNW,294,7.0,-999.0,51,-99.99,,,-99.99,,2013-02-07 02:01:00,
2013-02-06 19:11:00,38.0,24.0,29.92,WNW,282,7.0,-999.0,57,-99.99,,,-99.99,,2013-02-07 02:11:00,
2013-02-06 19:21:00,38.0,24.0,29.92,WNW,284,9.0,-999.0,57,-99.99,,,-99.99,,2013-02-07 02:21:00,
2013-02-06 19:32:00,39.0,24.0,29.92,West,271,8.0,-999.0,55,-99.99,,,-99.99,,2013-02-07 02:32:00,
2013-02-06 19:41:00,39.0,24.0,29.92,West,271,8.0,-999.0,55,-99.99,,,-99.99,,2013-02-07 02:41:00,
2013-02-06 19:51:00,39.0,24.0,29.92,West,271,8.0,-999.0,55,-99.99,,,-99.99,,2013-02-07 02:51:00,
2013-02-06 20:02:00,38.0,23.0,29.93,WNW,295,9.0,-999.0,55,-99.99,,,-99.99,,2013-02-07 03:02:00,
2013-02-06 20:11:00,38.0,23.0,29.94,NW,304,8.0,-999.0,54,-99.99,,,-99.99,,2013-02-07 03:11:00,
2013-02-06 20:21:00,37.0,22.0,29.95,WNW,301,8.0,-999.0,54,-99.99,,,-99.99,,2013-02-07 03:21:00,
2013-02-06 20:31:00,37.0,22.0,29.93,NW,305,10.0,-999.0,56,-99.99,,,-99.99,,2013-02-07 03:31:00,
2013-02-06 20:42:00,35.0,23.0,29.93,East,95,5.0,-999.0,61,-99.99,,,-99.99,,2013-02-07 03:42:00,
2013-02-06 20:52:00,35.0,22.0,29.94,NNW,340,8.0,-999.0,59,-99.99,,,-99.99,,2013-02-07 03:52:00,
2013-02-06 21:01:00,35.0,22.0,29.94,NNW,332,7.0,-999.0,58,-99.99,,,-99.99,,2013-02-07 04:01:00,
2013-02-06 21:11:00,34.0,22.0,29.96,North,5,8.0,-999.0,61,-99.99,,,-99.99,,2013-02-07 04:11:00,
2013-02-06 21:22:00,34.0,21.0,29.95,North,10,7.0,-999.0,59,-99.99,,,-99.99,,2013-02-07 04:22:00,
2013-02-06 21:32:00,34.0,21.0,29.96,North,0,6.0,-999.0,59,-99.99,,,-99.99,,2013-02-07 04:32:00,
2013-02-06 21:41:00,35.0,20.0,29.96,North,-999,7.0,-999.0,54,-99.99,,,-99.99,,2013-02-07 04:41:00,
2013-02-06 21:53:00,35.0,20.0,29.96,WNW,297,8.0,-999.0,55,-99.99,,,-99.99,,2013-02-07 04:53:00,
2013-02-06 22:02:00,33.0,21.0,29.96,WNW,288,7.0,-999.0,61,-99.99,,,-99.99,,2013-02-07 05:02:00,
2013-02-06 22:11:00,33.0,20.0,29.97,WNW,296,7.0,-999.0,59,-99.99,,,-99.99,,2013-02-07 05:11:00,
2013-02-06 22:21:00,33.0,20.0,29.97,WNW,299,7.0,-999.0,59,-99.99,,,-99.99,,2013-02-07 05:21:00,
2013-02-06 22:32:00,33.0,20.0,29.96,WNW,293,7.0,-999.0,60,-99.99,,,-99.99,,2013-02-07 05:32:00,
2013-02-06 22:42:00,33.0,20.0,29.95,NW,313,7.0,-999.0,59,-99.99,,,-99.99,,2013-02-07 05:42:00,
2013-02-06 22:52:00,33.0,20.0,29.97,NW,315,7.0,-999.0,60,-99.99,,,-99.99,,2013-02-07 05:52:00,
2013-02-06 23:02:00,33.0,20.0,29.97,North,-999,9.0,-999.0,59,-99.99,,,-99.99,,2013-02-07 06:02:00,
2013-02-06 23:11:00,33.0,20.0,29.96,NNW,342,10.0,-999.0,58,-99.99,,,-99.99,,2013-02-07 06:11:00,
2013-02-06 23:22:00,33.0,20.0,29.97,NNW,329,9.0,-999.0,57,-99.99,,,-99.99,,2013-02-07 06:22:00,
2013-02-06 23:32:00,33.0,20.0,29.99,WNW,297,6.0,-999.0,59,-99.99,,,-99.99,,2013-02-07 06:32:00,
2013-02-06 23:43:00,30.0,20.0,29.99,SW,228,10.0,-999.0,65,-99.99,,,-99.99,,2013-02-07 06:43:00,
2013-02-06 23:52:00,28.0,20.0,30.01,West,266,9.0,-999.0,73,-99.99,,,-99.99,,2013-02-07 06:52:00,